Weather History for Springfield, MO

Change the Weather History Date:

Tuesday, June 18, 2013

  Actual Average Record
Temperature  
Mean Temperature 72 °F 74 °F  
Max Temperature 86 °F 85 °F 99 °F (1952)
Min Temperature 58 °F 64 °F 47 °F (1966)
Degree Days  
Heating Degree Days 0 0  
Month to date heating degree days 14 7  
Since 1 June heating degree days 14 7  
Since 1 July heating degree days 4508 4576  
Cooling Degree Days 7 9  
Month to date cooling degree days 111 134  
Year to date cooling degree days 238 249  
Since 1 June cooling degree days 111 134  
Growing Degree Days 22 (Base 50)    
Moisture  
Dew Point 62 °F    
Average Humidity 71    
Maximum Humidity 97    
Minimum Humidity 45    
Precipitation  
Precipitation 0.00 in 0.17 in 2.52 in (1948)
Month to date precipitation 2.08 2.92  
Year to date precipitation 25.80 20.95  
Snow  
Snow 0.00 in - - ()
Month to date snowfall 0.0  
Since 1 June snowfall 0.0  
Since 1 July snowfall 12.7  
Snow Depth 0.00 in    
Sea Level Pressure  
Sea Level Pressure 29.99 in    
Wind  
Wind Speed 4 mph (North)    
Max Wind Speed 28 mph    
Max Gust Speed 31 mph    
Visibility 10 miles    
Events      
T = Trace of Precipitation, MM = Missing Value Source: NWS Daily Summary

Daily Weather History Graph

Daily Weather History Graph

Search for Another Location

Airport:

Trip Planner

Search our weather history database for the weather conditions in past years. The results will help you decide how hot, cold, wet, or windy it might be!

Date:

Astronomy

Jun. 18, 2013 Rise Set
Actual Time 5:53 AM CDT 8:36 PM CDT
Civil Twilight 5:22 AM CDT 9:07 PM CDT
Nautical Twilight 4:43 AM CDT 9:46 PM CDT
Astronomical Twilight 3:59 AM CDT 10:30 PM CDT
Moon 3:26 PM CDT (6/18) 1:55 AM CDT (6/18)
Length of Visible Light 15h 45m
Length of Day
14h 43m
Waxing Gibbous, 71% of the Moon is Illuminated
Jun 18
Waxing Gibbous
Jun 23
Full
Jun 29
Last Quarter
Jul 8
New
Jul 15
First Quarter

Hourly Weather History & Observations

Time (CDT) Temp. Heat Index Dew Point Humidity Pressure Visibility Wind Dir Wind Speed Gust Speed Precip Events Conditions
12:52 AM 64.9 °F - 61.0 °F 87% 29.94 in 10.0 mi WSW 4.6 mph - N/A   Clear
1:52 AM 63.0 °F - 60.1 °F 90% 29.97 in 10.0 mi SW 3.5 mph - N/A   Clear
2:52 AM 63.0 °F - 60.1 °F 90% 29.96 in 10.0 mi Calm Calm - N/A   Clear
3:52 AM 60.1 °F - 57.9 °F 93% 29.97 in 8.0 mi North 3.5 mph - N/A   Clear
4:52 AM 59.0 °F - 57.0 °F 93% 29.97 in 10.0 mi Calm Calm - N/A   Clear
5:52 AM 60.1 °F - 57.9 °F 93% 29.99 in 10.0 mi Calm Calm - N/A   Clear
6:52 AM 61.0 °F - 59.0 °F 93% 30.00 in 10.0 mi Calm Calm - N/A   Clear
7:52 AM 68.0 °F - 63.0 °F 84% 29.99 in 10.0 mi NNE 4.6 mph - N/A   Clear
8:52 AM 72.0 °F - 64.0 °F 76% 30.01 in 10.0 mi North 4.6 mph - N/A   Clear
9:52 AM 75.0 °F - 64.9 °F 71% 30.01 in 10.0 mi North 4.6 mph - N/A   Clear
10:52 AM 78.1 °F - 64.9 °F 64% 30.01 in 10.0 mi NNE 6.9 mph - N/A   Clear
11:52 AM 80.1 °F 81.7 °F 64.0 °F 58% 30.02 in 10.0 mi NNE 6.9 mph - N/A   Clear
12:52 PM 82.0 °F 83.4 °F 64.0 °F 54% 30.02 in 10.0 mi NNE 8.1 mph - N/A   Clear
1:52 PM 82.9 °F 84.0 °F 63.0 °F 51% 30.01 in 10.0 mi Calm Calm - N/A   Partly Cloudy
2:52 PM 84.0 °F 85.4 °F 64.0 °F 51% 30.00 in 10.0 mi Variable 3.5 mph - N/A   Clear
3:52 PM 84.9 °F 85.4 °F 62.1 °F 46% 29.96 in 10.0 mi Calm Calm - N/A   Clear
4:52 PM 86.0 °F 86.3 °F 62.1 °F 44% 29.96 in 10.0 mi NNE 8.1 mph - N/A   Partly Cloudy
5:52 PM 84.0 °F 84.5 °F 62.1 °F 47% 29.97 in 10.0 mi ENE 20.7 mph - N/A   Clear
6:52 PM 73.9 °F - 61.0 °F 64% 29.98 in 10.0 mi NE 13.8 mph - 0.00 in   Clear
7:52 PM 73.9 °F - 63.0 °F 68% 29.98 in 10.0 mi Variable 3.5 mph - N/A   Clear
8:52 PM 70.0 °F - 63.0 °F 78% 29.99 in 10.0 mi Calm Calm - N/A   Clear
9:52 PM 66.0 °F - 63.0 °F 90% 29.99 in 10.0 mi SW 5.8 mph - N/A   Clear
10:52 PM 66.9 °F - 62.1 °F 84% 29.97 in 10.0 mi South 5.8 mph - N/A   Clear
11:52 PM 68.0 °F - 62.1 °F 81% 29.98 in 10.0 mi Calm Calm - N/A   Clear